DLH17 EDDS-EDDL

Flight info

Callsign DLH17
Flight time 0h 57m
Altitude 22000
Route TAGIK4B/25 TAGIK Z3 ABUMO N850 GISEM Z505 ARPEG Z850 ADEMI T854 DOMUX DOMUX1A
Aircraft A20N/M-SDE2E3FGHIRWXY/LB1

Departure

Time 2026-05-04 19:08
Airport Stuttgart Airport (EDDS)

Arrival

Time 2026-05-04 20:06
Airport Düsseldorf Airport (EDDL)
Time Latitude Longitude Altitude Speed Heading
2026-05-04 18:39 48.68930 9.19652 1289 ft 0 kts 343°
2026-05-04 18:53 48.68925 9.19655 1285 ft 2 kts 343°
2026-05-04 18:53 48.68916 9.19659 1290 ft 1 kts 343°
2026-05-04 18:54 48.68911 9.19661 1290 ft 1 kts 343°
2026-05-04 18:54 48.68901 9.19666 1289 ft 1 kts 343°
2026-05-04 18:54 48.68894 9.19669 1288 ft 1 kts 345°
2026-05-04 18:54 48.68889 9.19671 1288 ft 1 kts 355°
2026-05-04 18:55 48.68881 9.19672 1288 ft 1 kts 11°
2026-05-04 18:55 48.68867 9.19664 1286 ft 1 kts 42°
2026-05-04 18:55 48.68861 9.19656 1286 ft 1 kts 57°
2026-05-04 18:56 48.68857 9.19646 1289 ft 1 kts 72°
2026-05-04 18:56 48.68857 9.19645 1289 ft 0 kts 74°
2026-05-04 18:58 48.68859 9.19656 1287 ft 4 kts 75°
2026-05-04 18:58 48.68871 9.19739 1285 ft 11 kts 74°
2026-05-04 18:58 48.68887 9.19835 1286 ft 7 kts 87°
2026-05-04 18:59 48.68852 9.19882 1285 ft 9 kts 162°
2026-05-04 18:59 48.68822 9.19958 1285 ft 10 kts 80°
2026-05-04 18:59 48.68845 9.20077 1287 ft 13 kts 73°
2026-05-04 18:59 48.68872 9.20221 1285 ft 15 kts 75°
2026-05-04 19:00 48.68904 9.20389 1289 ft 18 kts 74°
2026-05-04 19:00 48.68939 9.20578 1286 ft 20 kts 74°
2026-05-04 19:00 48.68979 9.20784 1286 ft 21 kts 74°
2026-05-04 19:00 48.69021 9.21010 1289 ft 23 kts 74°
2026-05-04 19:01 48.69067 9.21248 1287 ft 21 kts 75°
2026-05-04 19:01 48.69102 9.21438 1286 ft 15 kts 74°
2026-05-04 19:01 48.69134 9.21601 1286 ft 17 kts 72°
2026-05-04 19:01 48.69169 9.21786 1287 ft 19 kts 73°
2026-05-04 19:02 48.69208 9.21992 1289 ft 21 kts 73°
2026-05-04 19:02 48.69252 9.22215 1289 ft 23 kts 74°
2026-05-04 19:02 48.69296 9.22455 1286 ft 24 kts 74°
2026-05-04 19:02 48.69345 9.22708 1286 ft 26 kts 73°
2026-05-04 19:03 48.69395 9.22975 1289 ft 27 kts 73°
2026-05-04 19:03 48.69446 9.23253 1285 ft 28 kts 74°
2026-05-04 19:03 48.69502 9.23541 1287 ft 29 kts 74°
2026-05-04 19:03 48.69559 9.23838 1285 ft 30 kts 74°
2026-05-04 19:04 48.69603 9.24072 1286 ft 10 kts 73°
2026-05-04 19:04 48.69596 9.24188 1285 ft 13 kts 117°
2026-05-04 19:04 48.69536 9.24297 1287 ft 15 kts 161°
2026-05-04 19:04 48.69496 9.24315 1288 ft 0 kts 164°
2026-05-04 19:06 48.69488 9.24319 1287 ft 4 kts 163°
2026-05-04 19:06 48.69424 9.24349 1285 ft 8 kts 162°
2026-05-04 19:07 48.69392 9.24323 1285 ft 7 kts 253°
2026-05-04 19:07 48.69387 9.24293 1285 ft 0 kts 254°
2026-05-04 19:07 48.69386 9.24291 1285 ft 0 kts 254°
2026-05-04 19:07 48.69366 9.24184 1285 ft 37 kts 254°
2026-05-04 19:08 48.69229 9.23464 1287 ft 103 kts 254°
2026-05-04 19:08 48.68982 9.22166 1286 ft 152 kts 254°
2026-05-04 19:08 48.68663 9.20545 1720 ft 157 kts 253°
2026-05-04 19:08 48.68309 9.18946 2258 ft 165 kts 250°
2026-05-04 19:09 48.67893 9.17290 2801 ft 171 kts 250°
2026-05-04 19:09 48.67493 9.15491 3209 ft 185 kts 253°
2026-05-04 19:09 48.67145 9.13565 3644 ft 199 kts 255°
2026-05-04 19:09 48.66854 9.11439 4114 ft 217 kts 267°
2026-05-04 19:10 48.67093 9.09084 4575 ft 238 kts 288°
2026-05-04 19:10 48.67921 9.06824 5161 ft 255 kts 309°
2026-05-04 19:10 48.69348 9.05168 5908 ft 265 kts 335°
2026-05-04 19:10 48.71158 9.04430 6631 ft 278 kts 347°
2026-05-04 19:11 48.73106 9.03905 7308 ft 289 kts 346°
2026-05-04 19:11 48.75087 9.03252 8181 ft 294 kts 343°
2026-05-04 19:11 48.77078 9.02429 9018 ft 300 kts 340°
2026-05-04 19:11 48.79088 9.01484 9878 ft 305 kts 339°
2026-05-04 19:12 48.81128 9.00399 10482 ft 319 kts 336°
2026-05-04 19:12 48.85538 8.97743 11253 ft 356 kts 335°
2026-05-04 19:12 48.87849 8.96353 12084 ft 358 kts 335°
2026-05-04 19:13 48.90180 8.94965 12910 ft 362 kts 336°
2026-05-04 19:13 48.92532 8.93576 13740 ft 365 kts 336°
2026-05-04 19:13 48.94972 8.92409 14407 ft 371 kts 346°
2026-05-04 19:13 48.97548 8.91977 15104 ft 376 kts 357°
2026-05-04 19:14 49.00174 8.92243 15772 ft 381 kts
2026-05-04 19:14 49.02827 8.92627 16420 ft 386 kts
2026-05-04 19:14 49.05515 8.93003 17091 ft 390 kts
2026-05-04 19:14 49.08230 8.93378 17726 ft 395 kts
2026-05-04 19:15 49.10979 8.93757 18355 ft 399 kts
2026-05-04 19:15 49.13755 8.94142 18937 ft 402 kts
2026-05-04 19:15 49.16557 8.94532 19524 ft 405 kts
2026-05-04 19:15 49.19374 8.94923 20109 ft 409 kts
2026-05-04 19:16 49.22219 8.95320 20666 ft 412 kts
2026-05-04 19:16 49.25090 8.95724 21227 ft 416 kts
2026-05-04 19:16 49.27988 8.96132 21744 ft 420 kts
2026-05-04 19:16 49.30910 8.96541 21938 ft 422 kts
2026-05-04 19:17 49.33833 8.96953 21971 ft 422 kts
2026-05-04 19:17 49.36756 8.97366 21972 ft 422 kts
2026-05-04 19:17 49.39678 8.97778 21972 ft 422 kts
2026-05-04 19:17 49.42602 8.98191 21974 ft 423 kts
2026-05-04 19:18 49.45535 8.98605 21973 ft 422 kts
2026-05-04 19:18 49.48429 8.99012 21973 ft 423 kts
2026-05-04 19:18 49.51340 8.99421 21974 ft 422 kts
2026-05-04 19:18 49.54314 8.99838 21974 ft 423 kts
2026-05-04 19:19 49.57200 9.00239 21978 ft 423 kts
2026-05-04 19:19 49.60128 9.00645 21971 ft 423 kts
2026-05-04 19:19 49.63065 9.01052 21974 ft 423 kts
2026-05-04 19:19 49.66023 9.01473 21965 ft 423 kts
2026-05-04 19:20 49.68894 9.01905 21968 ft 424 kts
2026-05-04 19:20 49.71870 9.02342 21967 ft 423 kts
2026-05-04 19:20 49.74797 9.02758 21972 ft 424 kts
2026-05-04 19:20 49.77719 9.03186 21970 ft 424 kts
2026-05-04 19:21 49.80676 9.03628 21969 ft 423 kts
2026-05-04 19:21 49.83598 9.04039 21971 ft 424 kts
2026-05-04 19:21 49.86546 9.04449 21972 ft 422 kts
2026-05-04 19:21 49.89469 9.04821 21974 ft 421 kts 359°
2026-05-04 19:22 49.92378 9.04586 21970 ft 419 kts 348°
2026-05-04 19:22 49.95220 9.03556 21970 ft 416 kts 338°
2026-05-04 19:22 49.97911 9.01978 21969 ft 415 kts 335°
2026-05-04 19:22 50.00603 9.00381 21970 ft 415 kts 335°
2026-05-04 19:23 50.03313 8.98778 21970 ft 415 kts 335°
2026-05-04 19:23 50.06007 8.97182 21970 ft 415 kts 335°
2026-05-04 19:23 50.08708 8.95577 21974 ft 414 kts 335°
2026-05-04 19:23 50.11393 8.93979 21971 ft 414 kts 335°
2026-05-04 19:24 50.14133 8.92562 21970 ft 416 kts 342°
2026-05-04 19:24 50.16980 8.91727 21973 ft 418 kts 349°
2026-05-04 19:24 50.19871 8.91146 21972 ft 419 kts 349°
2026-05-04 19:24 50.22758 8.90535 21972 ft 418 kts 349°
2026-05-04 19:25 50.25641 8.89919 21973 ft 418 kts 349°
2026-05-04 19:25 50.28522 8.89305 21973 ft 418 kts 349°
2026-05-04 19:25 50.31412 8.88698 21980 ft 418 kts 349°
2026-05-04 19:25 50.34291 8.88098 21972 ft 417 kts 349°
2026-05-04 19:26 50.37158 8.87500 21971 ft 418 kts 349°
2026-05-04 19:26 50.40079 8.86888 21973 ft 418 kts 349°
2026-05-04 19:26 50.42922 8.86292 21971 ft 418 kts 349°
2026-05-04 19:26 50.45803 8.85687 21974 ft 418 kts 349°
2026-05-04 19:27 50.48683 8.85082 21974 ft 418 kts 349°
2026-05-04 19:27 50.51564 8.84475 21975 ft 418 kts 349°
2026-05-04 19:27 50.54447 8.83867 21986 ft 418 kts 348°
2026-05-04 19:27 50.57314 8.83263 21975 ft 414 kts 348°
2026-05-04 19:28 50.60119 8.82673 21969 ft 397 kts 347°
2026-05-04 19:28 50.62717 8.81639 21969 ft 375 kts 334°
2026-05-04 19:28 50.64972 8.79862 21970 ft 352 kts 322°
2026-05-04 19:28 50.66851 8.77574 21963 ft 332 kts 314°
2026-05-04 19:29 50.68572 8.75266 21972 ft 316 kts 314°
2026-05-04 19:29 50.70213 8.73085 21977 ft 305 kts 314°
2026-05-04 19:29 50.71849 8.70898 21975 ft 311 kts 314°
2026-05-04 19:29 50.73501 8.68680 21974 ft 312 kts 314°
2026-05-04 19:30 50.75147 8.66472 21976 ft 311 kts 314°
2026-05-04 19:30 50.76794 8.64263 21976 ft 311 kts 314°
2026-05-04 19:30 50.78445 8.62045 21981 ft 311 kts 314°
2026-05-04 19:30 50.80092 8.59831 21980 ft 311 kts 314°
2026-05-04 19:31 50.81740 8.57614 21979 ft 311 kts 314°
2026-05-04 19:31 50.83384 8.55399 21979 ft 311 kts 314°
2026-05-04 19:31 50.85029 8.53183 21980 ft 311 kts 314°
2026-05-04 19:31 50.86674 8.50964 21981 ft 311 kts 314°
2026-05-04 19:32 50.88319 8.48742 21981 ft 311 kts 314°
2026-05-04 19:32 50.89968 8.46512 21990 ft 312 kts 314°
2026-05-04 19:32 50.91619 8.44277 21977 ft 312 kts 314°
2026-05-04 19:32 50.93264 8.42048 21986 ft 312 kts 314°
2026-05-04 19:33 50.94915 8.39809 21984 ft 312 kts 314°
2026-05-04 19:33 50.96560 8.37577 21990 ft 312 kts 314°
2026-05-04 19:33 50.98213 8.35332 21849 ft 314 kts 314°
2026-05-04 19:33 50.99865 8.33086 21581 ft 312 kts 314°
2026-05-04 19:34 51.01522 8.30899 21318 ft 309 kts 319°
2026-05-04 19:34 51.03359 8.29109 21073 ft 311 kts 326°
2026-05-04 19:34 51.05252 8.27451 20827 ft 310 kts 326°
2026-05-04 19:34 51.07133 8.25783 20575 ft 308 kts 326°
2026-05-04 19:35 51.08997 8.24119 20329 ft 307 kts 325°
2026-05-04 19:35 51.10857 8.22457 20088 ft 306 kts 326°
2026-05-04 19:35 51.12710 8.20803 19839 ft 305 kts 326°
2026-05-04 19:35 51.14559 8.19154 19594 ft 304 kts 326°
2026-05-04 19:36 51.16399 8.17514 19356 ft 303 kts 326°
2026-05-04 19:36 51.18223 8.15865 19113 ft 301 kts 321°
2026-05-04 19:36 51.19690 8.13605 18886 ft 291 kts 297°
2026-05-04 19:36 51.20740 8.10855 18654 ft 290 kts 295°
2026-05-04 19:37 51.21776 8.08081 18427 ft 292 kts 295°
2026-05-04 19:37 51.22812 8.05304 18178 ft 292 kts 295°
2026-05-04 19:37 51.23849 8.02531 17909 ft 289 kts 296°
2026-05-04 19:37 51.24875 7.99790 17642 ft 287 kts 295°
2026-05-04 19:38 51.25900 7.97050 17367 ft 287 kts 295°
2026-05-04 19:38 51.26574 7.95244 17202 ft 286 kts 295°
2026-05-04 19:38 51.27588 7.92527 16940 ft 284 kts 295°
2026-05-04 19:38 51.28599 7.89814 16681 ft 283 kts 295°
2026-05-04 19:39 51.29604 7.87115 16424 ft 282 kts 295°
2026-05-04 19:39 51.30603 7.84429 16173 ft 281 kts 295°
2026-05-04 19:39 51.31600 7.81749 15917 ft 280 kts 295°
2026-05-04 19:39 51.32584 7.79095 15661 ft 281 kts 295°
2026-05-04 19:40 51.33579 7.76413 15421 ft 280 kts 295°
2026-05-04 19:40 51.34567 7.73746 15164 ft 278 kts 295°
2026-05-04 19:40 51.35550 7.71092 14913 ft 277 kts 295°
2026-05-04 19:40 51.36529 7.68444 14670 ft 276 kts 295°
2026-05-04 19:41 51.37505 7.65799 14441 ft 276 kts 296°
2026-05-04 19:41 51.38483 7.63140 14225 ft 277 kts 296°
2026-05-04 19:41 51.39481 7.60498 13991 ft 278 kts 302°
2026-05-04 19:41 51.40812 7.58247 13765 ft 280 kts 313°
2026-05-04 19:42 51.42229 7.56121 13496 ft 278 kts 313°
2026-05-04 19:42 51.43637 7.54014 13223 ft 277 kts 313°
2026-05-04 19:42 51.45042 7.51912 12966 ft 275 kts 313°
2026-05-04 19:42 51.46443 7.49818 12717 ft 274 kts 313°
2026-05-04 19:43 51.47833 7.47740 12456 ft 273 kts 313°
2026-05-04 19:43 51.49219 7.45671 12201 ft 272 kts 313°
2026-05-04 19:43 51.50601 7.43609 11949 ft 270 kts 313°
2026-05-04 19:43 51.51974 7.41560 11692 ft 269 kts 313°
2026-05-04 19:44 51.53346 7.39515 11435 ft 268 kts 313°
2026-05-04 19:44 51.54708 7.37489 11193 ft 267 kts 313°
2026-05-04 19:44 51.56069 7.35466 10955 ft 266 kts 313°
2026-05-04 19:44 51.57422 7.33455 10693 ft 264 kts 313°
2026-05-04 19:45 51.58765 7.31446 10448 ft 262 kts 313°
2026-05-04 19:45 51.60076 7.29425 10205 ft 260 kts 313°
2026-05-04 19:45 51.61381 7.27405 9967 ft 260 kts 313°
2026-05-04 19:45 51.62681 7.25393 9719 ft 259 kts 313°
2026-05-04 19:46 51.63958 7.23357 9456 ft 259 kts 313°
2026-05-04 19:46 51.65223 7.21313 9269 ft 257 kts 313°
2026-05-04 19:46 51.66485 7.19273 9140 ft 258 kts 313°
2026-05-04 19:46 51.67730 7.17261 9013 ft 256 kts 312°
2026-05-04 19:47 51.68677 7.14886 8963 ft 253 kts 284°
2026-05-04 19:47 51.68787 7.12083 8962 ft 253 kts 255°
2026-05-04 19:47 51.68062 7.09542 8965 ft 251 kts 233°
2026-05-04 19:47 51.67082 7.07224 8969 ft 250 kts 233°
2026-05-04 19:48 51.66097 7.04914 8965 ft 250 kts 233°
2026-05-04 19:48 51.65095 7.02572 8852 ft 251 kts 233°
2026-05-04 19:48 51.64108 7.00267 8722 ft 249 kts 233°
2026-05-04 19:48 51.63141 6.98008 8591 ft 248 kts 233°
2026-05-04 19:49 51.62150 6.95695 8464 ft 248 kts 233°
2026-05-04 19:49 51.61175 6.93416 8341 ft 247 kts 233°
2026-05-04 19:49 51.60217 6.91180 8218 ft 245 kts 233°
2026-05-04 19:49 51.59263 6.88921 8079 ft 237 kts 233°
2026-05-04 19:50 51.58345 6.86746 7984 ft 239 kts 233°
2026-05-04 19:50 51.57389 6.84524 7964 ft 238 kts 227°
2026-05-04 19:50 51.56071 6.82985 7962 ft 237 kts 197°
2026-05-04 19:50 51.54445 6.82770 7970 ft 238 kts 167°
2026-05-04 19:51 51.52974 6.83900 7967 ft 241 kts 144°
2026-05-04 19:51 51.51621 6.85566 7962 ft 241 kts 143°
2026-05-04 19:51 51.50316 6.87192 7962 ft 241 kts 143°
2026-05-04 19:51 51.48985 6.88847 7965 ft 242 kts 143°
2026-05-04 19:52 51.47656 6.90499 7968 ft 241 kts 143°
2026-05-04 19:52 51.46329 6.92147 7967 ft 242 kts 143°
2026-05-04 19:52 51.45002 6.93796 7979 ft 241 kts 143°
2026-05-04 19:52 51.43674 6.95449 7875 ft 243 kts 143°
2026-05-04 19:53 51.42346 6.97102 7620 ft 240 kts 143°
2026-05-04 19:53 51.41033 6.98743 7302 ft 240 kts 143°
2026-05-04 19:53 51.39717 7.00392 6941 ft 241 kts 143°
2026-05-04 19:53 51.38396 7.02054 6570 ft 242 kts 143°
2026-05-04 19:54 51.37085 7.03709 6290 ft 238 kts 143°
2026-05-04 19:54 51.35801 7.05335 6033 ft 233 kts 142°
2026-05-04 19:54 51.34830 7.07403 5782 ft 239 kts 112°
2026-05-04 19:54 51.34669 7.10056 5652 ft 246 kts 81°
2026-05-04 19:55 51.35377 7.12565 5528 ft 253 kts 54°
2026-05-04 19:55 51.36429 7.14797 5385 ft 249 kts 53°
2026-05-04 19:55 51.37465 7.17008 5267 ft 249 kts 53°
2026-05-04 19:55 51.38502 7.19224 5132 ft 248 kts 53°
2026-05-04 19:56 51.39534 7.21461 5021 ft 250 kts 53°
2026-05-04 19:56 51.40566 7.23710 5009 ft 251 kts 53°
2026-05-04 19:56 51.41597 7.25962 5013 ft 251 kts 53°
2026-05-04 19:56 51.42631 7.28214 5012 ft 251 kts 53°
2026-05-04 19:57 51.43668 7.30459 5020 ft 251 kts 50°
2026-05-04 19:57 51.45036 7.32138 5020 ft 250 kts 19°
2026-05-04 19:57 51.46731 7.32517 5019 ft 246 kts 348°
2026-05-04 19:57 51.48296 7.31542 5020 ft 241 kts 323°
2026-05-04 19:58 51.49476 7.29723 5007 ft 234 kts 295°
2026-05-04 19:58 51.49900 7.27257 4879 ft 230 kts 266°
2026-05-04 19:58 51.49831 7.24712 4642 ft 226 kts 263°
2026-05-04 19:58 51.49731 7.22203 4514 ft 227 kts 261°
2026-05-04 19:59 51.49334 7.19739 4397 ft 229 kts 242°
2026-05-04 19:59 51.48559 7.17576 4271 ft 226 kts 233°
2026-05-04 19:59 51.47630 7.15535 4141 ft 226 kts 230°
2026-05-04 19:59 51.46682 7.13524 4015 ft 226 kts 230°
2026-05-04 20:00 51.45736 7.11515 3927 ft 225 kts 230°
2026-05-04 20:00 51.44791 7.09515 3848 ft 226 kts 230°
2026-05-04 20:00 51.43841 7.07504 3776 ft 226 kts 230°
2026-05-04 20:00 51.42893 7.05496 3697 ft 225 kts 230°
2026-05-04 20:01 51.41972 7.03546 3612 ft 214 kts 230°
2026-05-04 20:01 51.41102 7.01704 3526 ft 202 kts 230°
2026-05-04 20:01 51.40277 6.99960 3440 ft 191 kts 230°
2026-05-04 20:01 51.39495 6.98308 3307 ft 182 kts 230°
2026-05-04 20:02 51.38733 6.96700 3083 ft 180 kts 230°
2026-05-04 20:02 51.37985 6.95119 2836 ft 177 kts 230°
2026-05-04 20:02 51.37247 6.93563 2626 ft 177 kts 230°
2026-05-04 20:02 51.36506 6.91998 2828 ft 172 kts 230°
2026-05-04 20:03 51.35790 6.90482 2895 ft 166 kts 229°
2026-05-04 20:03 51.35150 6.89010 2603 ft 154 kts 234°
2026-05-04 20:03 51.34581 6.87655 2330 ft 142 kts 233°
2026-05-04 20:03 51.33963 6.86248 2005 ft 163 kts 230°
2026-05-04 20:04 51.33269 6.84838 1518 ft 159 kts 227°
2026-05-04 20:04 51.32577 6.83531 1203 ft 146 kts 225°
2026-05-04 20:04 51.31956 6.82343 932 ft 136 kts 227°
2026-05-04 20:04 51.31380 6.81162 729 ft 131 kts 229°
2026-05-04 20:05 51.30842 6.80017 515 ft 129 kts 227°
2026-05-04 20:05 51.30285 6.78898 399 ft 128 kts 228°
2026-05-04 20:05 51.29746 6.77747 215 ft 128 kts 229°
2026-05-04 20:05 51.29218 6.76671 128 ft 111 kts 230°
2026-05-04 20:06 51.28893 6.75964 122 ft 43 kts 233°
2026-05-04 20:06 51.28674 6.75690 125 ft 36 kts 199°
2026-05-04 20:06 51.28623 6.75675 123 ft 4 kts 181°
2026-05-04 20:06 51.28563 6.75682 124 ft 12 kts 168°
2026-05-04 20:07 51.28476 6.75757 122 ft 16 kts 142°
2026-05-04 20:07 51.28438 6.75805 120 ft 0 kts 143°
2026-05-04 20:09 51.28433 6.75811 121 ft 4 kts 143°
2026-05-04 20:10 51.28391 6.75860 121 ft 11 kts 143°
2026-05-04 20:10 51.28321 6.75942 122 ft 12 kts 143°
2026-05-04 20:10 51.28255 6.76020 124 ft 11 kts 145°
2026-05-04 20:10 51.28226 6.76051 123 ft 0 kts 147°
2026-05-04 20:11 51.28216 6.76062 124 ft 3 kts 147°
2026-05-04 20:11 51.28198 6.76083 126 ft 5 kts 141°
2026-05-04 20:11 51.28183 6.76142 124 ft 6 kts 83°
2026-05-04 20:11 51.28201 6.76201 124 ft 7 kts 98°
2026-05-04 20:12 51.28175 6.76270 126 ft 8 kts 142°
2026-05-04 20:12 51.28137 6.76340 127 ft 10 kts 118°
2026-05-04 20:12 51.28087 6.76429 126 ft 10 kts 147°
2026-05-04 20:12 51.28072 6.76500 125 ft 8 kts 96°
2026-05-04 20:13 51.28068 6.76546 125 ft 0 kts 96°